Location: Bear Valley Community Church - Hurst
(32.8460°N, 97.1828°W)
Time: 01:50:36
(UTC+00:00)

SL-27 R/B - Pass Details

Date: 08 December 2021
Orbit: 416 x 464 km, 74.7° (Epoch: 28 January)

Event Time Altitude Azimuth Distance (km) Brightness Sun altitude
Exits shadow 12:27:45 11° 324° (NW) 1,513 4.6 -10.7°
Maximum altitude 12:30:46 35° 259° (WSW) 750 3.1 -10.1°
Drops below altitude 10° 12:33:57 10° 192° (SSW) 1,570 5.3 -9.5°
Sets 12:36:06 0° 183° (S) 2,427 6.4 -9.1°
